星链-32275 (STARLINK-32275)

导读 | 豆包AI

STARLINK-32275是美国SpaceX星链(Starlink)星座的成员卫星,于2024年8月4日发射入轨。星链星座旨在构建全球卫星互联网系统,该卫星运行于近地轨道,助力拓展全球宽带网络覆盖。它将为传统基础设施匮乏的偏远地区提供高速低延迟互联网接入,支撑视频通话、在线服务等应用,是SpaceX推进大规模低轨卫星组网的重要一环,进一步完善星链星座的服务能力与全球覆盖范围。

基本信息
目录编号:
60360
目录名称:
STARLINK-32275
国际标识:
2024-138F
轨道中心:
EARTH
卫星名称:
星链-32275 (STARLINK-32275)
卫星全名:
星链-32275 (STARLINK-32275)
卫星状态:
在轨 (已飞行588 天)
发射日期:
2024-08-04 UTC
国别 :
美国 (US)
星等 :
--
轨道信息
数据来源 国际轨道数据 AOE轨道数据
星历时间 2026-03-15T14:45:40+0800
8小时前
查看轨道信息
2026-03-14T17:00:00+0800
1天前
查看轨道信息
半长轴 6853.506km 6853.278km
偏心率 0.0000717 0.0001663
轨道倾角 53.160° 53.161°
近地点辐角 107.219° 84.780°
升交点赤经 283.637° 287.850°
平近点角 252.889° 318.063°
近地点 474.877km 474.001km
远地点 475.861km 476.281km
周期 94.109分钟 94.104分钟
每日圈数 15.301485 15.302251
详细信息
卫星平台:
Starlink v2.0 mini
运营商:
太空探索技术公司
运营商所在国:
美国
制造商(研发单位):
太空探索技术公司
制造商所在国:
美国
使用方式:
暂无
卫星简介
星链(Starlink)计划是由太空探索技术公司(SpaceX)提出的一个巨型低轨卫星互联网星座项目,计划在2019年至2024年间在太空搭建由约1.2万颗卫星组成的“星链”网络,其中1584颗将部署在地球上空550千米处的近地轨道,并从2020年开始工作。该卫星仍在工作。
2D轨道图
3D轨道图
轨道高度分析图
轨道倾角分析图
轨道综合分析图
查看轨道综合分析图